Volver al catálogo

ONEWEB-0550

ActivoComunicacionesPO
NORAD 56052·PAYLOAD·🇬🇧 United Kingdom

Lanzado Mar 26, 2023 desde Satish Dhawan Space Centre

Loading…

Próximos Pases (próximas 24 horas)

TLE

ActualizadoSource: CelesTrak SupGP

Época: Sep 14, 2026, 20:36 UTC

1 56052C 23043G   26257.85884676  .00001867  00000+0  45250-2 0  2570
2 56052  87.9273 226.1278 0002331  82.8792 303.4057 13.21823157    15

Sigue ONEWEB-0550 en tiempo real con AllMySat

Download on the App Store